SCP
0 0 0 0 0 0 0 0 0 0 0 0 0 0 0 0 0 0 0 0 0 0 0 0 0 0 0 0 0 0 0 0 0 0 0 0 0 0 0 0 0 0 0
0 0 0 0 0 0 0 0 0 0 0 0 0 0 0 0 0 0 0 0 0 0 0 0 0 0 0 0 0 0 0 0 0 0 0 0 0 0 0 0 0 0 0
0 0 0 0 0 0 0 0 0 0 0 0 0 0 0 0 0 0 0 0 0 0 0 0 0 0 0 0 0 0 0 0 0 0 0 0 0 0 0 0 0 0 0
0 0 0 0 0 0 0 0 0 0 0 0 0 0 0 0 0 0 0 0 0 0 0 0 0 0 0 0 0 0 0 0 0 0 0 0 0 0 0 0 0 0 0
0 0 0 0 0 0 0 0 0 0 0 0 0 0 0 0 0 0 0 0 0 0 0 0 0 0 0 0 0 0 1 0 0 0 0 0 0 0 0 0 0 0 0
0 0 0 0 0 0 0 0 0 0 0 0 0 0 0 0 0 0 0 0 0 0 0 0 0 0 0 0 0 0 0 1 0 0 0 0 0 0 0 0 0 0 0
0 0 0 0 0 0 0 0 0 0 0 0 0 0 0 0 0 0 0 0 0 0 0 0 0 0 0 0 0 0 0 0 0 0 0 0 0 0 0 0 0 0 0
0 0 0 0 0 0 0 0 0 0 0 0 0 0 0 0 0 0 0 0 0 0 0 0 0 0 0 0 0 0 0 0 0 0 0 0 0 0 0 0 0 0 0
0 0 0 0 0 0 0 0 0 0 0 0 0 0 0 0 0 0 0 0 0 0 0 0 0 0 0 0 0 0 0 0 0 0 0 0 0 0 0 0 0 0 0
0 0 0 0 0 0 0 0 0 0 0 0 0 0 0 0 0 0 0 0 0 0 0 0 0 0 0 0 0 0 0 0 0 0 0 0 0 0 0 0 0 0 0
0 0 0 0 0 0 0 0 0 0 0 0 0 0 0 0 0 0 0 0 0 0 0 0 0 0 0 0 0 0 0 0 0 0 0 0 0 0 0 0 0 0 0
0 0 0 0 0 0 0 0 0 0 0 0 0 0 0 0 0 0 0 0 0 0 0 0 0 0 0 0 0 0 0 0 0 0 0 0 0 0 0 0 0 -0 -0
0 0 0 0 0 0 0 0 0 0 0 0 0 0 0 0 0 0 0 0 0 0 0 0 0 0 0 0 0 0 0 0 0 0 0 0 0 0 0 0 0 0 0
0 0 0 0 0 0 0 0 0 0 0 0 0 0 0 0 0 0 0 0 0 0 0 0 0 0 0 0 0 0 0 0 0 0 0 0 0 0 0 0 0 0 -0
0 0 0 0 0 0 0 0 0 0 0 0 0 0 0 0 0 0 0 0 0 0 0 0 0 0 0 0 0 0 0 0 0 0 0 0 0 0 0 0 0 -0 -0
0 0 0 0 0 0 0 0 0 0 0 0 0 0 0 0 0 0 0 0 0 0 0 0 0 0 0 0 0 0 0 0 0 0 0 0 0 0 0 0 0 -0 -0
0 0 0 0 0 0 0 0 0 0 0 0 0 0 0 0 0 0 0 0 0 0 0 0 0 0 0 0 0 0 0 0 0 0 0 0 0 0 0 0 -0 -0 -0
0 0 0 0 0 0 0 0 0 0 0 0 0 0 0 0 0 0 0 0 0 0 0 0 0 0 0 0 0 0 0 0 0 0 0 0 0 0 0 0 -0 -0 -0
0 0 0 0 0 0 0 0 0 0 0 0 0 0 0 0 0 0 0 0 0 0 0 0 0 0 0 0 0 0 0 0 0 0 0 0 0 0 0 0 0 0 -0
0 0 0 0 0 0 0 0 0 0 0 0 0 0 0 0 0 0 0 0 0 0 0 0 0 0 0 0 0 0 0 0 0 0 0 0 0 0 0 0 0 0 0
0 0 0 0 0 0 0 0 0 0 0 0 0 0 0 0 0 0 0 0 0 0 0 0 0 0 -0 -0 0 0 0 0 0 0 0 0 0 0 0 0 0 0 0
0 0 0 0 0 0 0 0 0 0 0 0 0 0 0 0 0 0 0 0 0 0 0 0 0 0 -0 0 0 0 0 0 0 0 0 0 0 0 0 0 0 0 0
0 0 0 0 0 0 0 0 0 0 0 0 0 0 0 0 0 0 0 0 0 0 0 0 0 0 -0 0 0 0 0 0 0 0 0 0 0 0 0 0 0 0 0
0 0 0 0 0 0 0 0 0 0 0 0 0 0 0 0 0 0 0 0 0 0 0 0 0 0 -0 0 0 0 0 0 0 0 0 0 0 0 0 0 0 0 0
0 0 0 0 0 0 0 0 0 0 0 0 0 0 0 0 0 0 0 0 0 0 0 0 0 0 0 0 0 0 0 0 0 0 0 0 0 0 0 0 0 0 0
0 0 0 0 0 0 0 0 0 0 0 0 0 0 0 0 0 0 0 0 0 0 0 0 -0 0 -0 0 0 0 0 0 0 0 0 0 0 0 0 0 0 0 0
Wind_Speed_500mb
19 17 30 29 22 19 16 13 11 12 14 15 18 19 20 20 21 21 19 19 15 11 12 15 15 16 17 16 17 24 23 21 18 17 18 14 15 14 20 23 12 11 8
6 15 27 28 22 18 16 14 13 14 16 18 19 20 21 21 22 22 21 23 22 19 15 10 16 19 22 20 21 23 26 25 24 22 23 21 22 18 30 20 16 11 9
13 15 24 26 21 17 14 12 12 15 15 15 15 14 14 14 14 16 17 19 24 28 28 23 14 13 17 22 22 25 26 28 25 24 23 21 23 25 33 25 15 12 12
13 12 21 25 20 16 13 12 13 13 11 9 9 10 10 11 12 14 15 17 19 22 27 33 32 21 16 17 23 26 30 30 28 27 25 22 26 31 35 22 22 14 13
14 14 23 25 20 13 12 14 13 10 8 8 8 7 7 8 9 11 13 15 16 19 22 27 34 36 34 27 22 26 31 32 31 30 29 25 26 35 41 29 26 15 16
13 16 22 21 16 13 13 12 10 9 7 7 7 8 9 11 12 14 16 17 19 21 23 24 28 34 40 40 35 27 30 33 35 34 33 29 29 35 40 37 28 19 20
15 18 19 19 13 11 11 9 8 7 7 8 8 11 13 15 16 18 19 20 21 23 25 28 30 32 35 40 45 41 32 32 33 37 37 33 31 36 43 40 31 22 25
12 14 17 16 12 10 8 8 8 8 8 8 11 13 16 19 20 21 20 20 21 22 24 26 30 34 35 36 40 43 45 37 36 39 39 35 30 35 44 43 28 27 32
13 13 16 16 12 9 8 8 8 9 8 10 12 15 17 20 22 24 26 29 30 31 29 30 30 32 34 36 37 40 41 44 40 40 42 39 35 33 38 27 31 30 37
17 17 16 14 11 8 7 7 8 8 9 10 12 15 18 22 27 28 29 31 32 32 32 33 33 34 34 35 35 37 39 45 44 43 44 42 41 39 38 42 41 29 38
25 20 18 15 11 9 7 6 6 8 10 13 14 18 23 28 31 33 35 36 34 31 28 28 28 28 29 34 34 32 40 48 47 45 44 47 45 40 39 47 42 37 41
29 23 19 16 10 10 8 5 6 9 12 16 21 24 29 31 33 34 32 33 33 31 25 19 21 24 24 24 28 32 36 43 51 49 44 47 47 44 41 43 49 45 48
24 25 19 17 13 12 9 7 8 11 15 20 26 29 30 33 32 30 28 26 23 22 20 18 16 18 22 23 22 26 32 38 49 49 44 40 44 44 40 43 54 52 49
32 26 22 17 16 14 11 11 12 14 17 22 28 32 35 32 29 27 25 23 19 19 21 21 18 18 20 19 21 25 27 27 37 47 44 40 45 44 41 40 58 54 46
29 25 20 19 20 17 14 15 13 15 19 23 27 32 30 28 27 24 22 20 19 21 20 17 14 15 19 16 19 25 24 20 17 41 42 38 43 45 39 43 53 50 49
24 23 19 19 20 19 17 16 14 16 19 24 28 26 24 23 23 20 19 19 19 21 19 22 20 15 10 14 12 18 24 22 22 26 40 36 33 38 37 62 31 49 53
22 22 22 21 21 22 19 15 13 15 20 25 26 20 20 21 19 17 19 20 22 25 23 21 16 14 5 11 6 21 22 27 28 25 24 34 37 33 46 41 53 60 50
26 28 27 25 23 24 20 13 12 17 20 23 18 17 17 18 13 18 19 23 27 31 16 11 16 10 5 9 4 10 16 19 31 28 25 35 38 37 44 49 49 50 39
28 31 32 28 24 22 17 12 14 16 18 14 13 14 14 11 14 16 22 27 25 20 24 21 19 10 5 8 4 4 5 14 24 27 29 36 41 39 48 50 42 41 42
29 30 28 27 23 21 16 13 13 16 14 10 12 11 11 8 13 17 22 22 20 19 21 20 16 18 12 10 9 10 9 15 20 24 30 39 44 52 48 43 39 35 46
31 31 27 25 22 20 15 11 12 13 8 6 7 10 8 7 11 13 18 18 16 18 18 17 9 15 14 16 14 18 17 17 25 36 33 48 57 48 50 44 38 31 38
30 29 26 24 22 18 13 10 13 11 5 6 4 5 8 8 8 12 15 17 19 19 17 14 11 6 13 13 22 26 17 36 32 41 44 46 47 56 52 41 31 23 40
30 28 24 24 21 16 11 10 11 9 4 1 3 3 4 6 6 11 13 16 18 21 16 12 10 9 7 11 19 10 13 10 46 48 50 52 39 38 34 33 37 24 55
28 26 25 23 19 15 10 9 8 7 5 2 1 1 1 2 3 8 11 14 18 17 13 13 10 6 12 17 6 15 8 46 31 27 48 46 42 33 41 43 39 31 60
29 28 25 23 19 14 11 10 9 9 5 2 1 3 3 2 3 6 11 11 14 14 10 10 9 11 12 8 11 25 37 52 39 56 51 67 62 62 56 46 45 56 53
30 28 25 21 17 15 11 10 8 9 6 4 4 4 5 4 1 5 10 9 14 13 7 9 11 12 11 7 9 26 39 41 49 66 72 72 72 59 53 49 44 52 71
Wind_Direction_500mb
190 183 194 197 195 197 202 211 228 242 252 259 263 263 264 262 261 261 258 251 253 243 265 257 251 251 248 236 225 223 231 232 227 230 237 233 244 252 193 177 184 168 138
223 198 198 198 197 200 207 222 242 257 266 268 266 263 262 263 265 265 258 251 246 244 239 265 268 257 248 243 230 225 230 233 236 231 235 235 233 228 190 179 180 175 147
234 213 200 199 199 205 216 245 268 279 276 270 267 269 270 270 268 269 265 259 251 243 249 242 250 268 253 244 239 230 223 228 234 233 235 236 220 199 190 181 181 181 153
223 216 201 197 201 213 238 267 288 287 279 275 281 280 282 282 279 274 272 269 263 256 247 245 249 251 252 255 244 237 228 221 225 229 234 228 214 202 195 196 179 171 158
210 201 190 197 205 226 267 288 290 286 289 290 287 290 290 288 291 291 286 282 276 267 258 250 249 245 245 245 245 240 235 228 226 227 228 227 219 208 202 198 187 173 159
204 189 191 198 211 239 270 283 288 288 287 288 297 300 303 308 309 305 304 297 289 284 275 265 255 249 246 245 243 241 237 230 229 224 225 226 221 213 202 190 181 166 164
200 191 195 203 222 261 280 283 277 280 292 299 305 317 322 322 323 319 315 311 302 292 284 278 270 261 254 249 243 243 241 233 226 223 223 226 225 214 198 187 178 172 165
216 201 202 211 233 257 265 272 286 300 297 310 321 327 331 330 325 320 315 304 295 288 282 275 270 266 260 253 249 241 238 234 228 223 222 223 221 209 202 196 171 172 164
225 223 215 220 237 244 255 273 286 287 302 320 327 333 327 320 316 311 309 309 305 297 287 277 266 259 257 253 247 244 236 227 225 222 223 218 217 214 212 196 177 174 166
232 231 226 227 233 241 256 272 279 300 312 320 324 322 322 327 324 320 315 309 304 300 296 288 281 272 259 252 244 237 231 223 223 222 220 218 217 221 214 203 182 173 171
230 235 234 228 230 234 239 266 304 308 307 313 330 331 334 330 329 326 321 322 322 317 310 298 287 277 265 256 250 238 228 221 221 221 218 217 218 224 215 207 186 180 174
235 233 235 234 234 241 249 282 310 302 313 328 334 337 335 332 327 324 326 324 321 318 316 309 292 278 263 257 252 239 228 223 217 217 220 215 219 222 219 208 205 181 174
249 244 242 239 233 238 259 282 301 308 325 334 332 331 329 328 332 331 326 323 322 318 314 309 297 277 268 253 246 236 228 222 216 212 215 217 215 217 217 206 185 172 167
238 241 244 243 244 248 263 272 295 316 326 329 327 325 331 337 336 335 334 330 325 325 321 311 294 271 262 259 255 232 213 219 214 206 207 211 211 212 213 201 170 166 167
231 233 234 233 234 236 247 266 292 314 320 321 321 329 334 340 342 336 338 344 345 338 329 335 321 299 261 259 256 216 210 199 215 211 207 206 206 211 209 200 175 178 168
224 227 229 229 232 235 244 267 296 310 315 316 323 333 339 345 331 338 350 359 353 350 347 339 331 318 289 259 228 211 209 201 212 211 212 205 207 209 203 187 164 168 168
226 220 226 230 232 236 246 269 297 306 314 320 329 339 349 335 342 360 5 8 359 353 334 334 332 319 325 313 245 222 213 206 211 209 208 197 205 199 182 181 166 166 172
223 214 214 225 233 239 249 274 292 301 316 324 334 340 352 335 360 15 24 4 357 349 360 13 349 340 311 319 244 227 218 204 209 217 204 188 188 184 183 170 171 170 173
225 214 213 219 224 235 248 263 281 302 316 329 333 346 347 348 24 35 17 4 358 17 36 18 3 22 352 341 207 158 200 189 183 198 191 178 178 183 173 173 170 175 170
218 218 219 213 219 226 238 255 285 304 319 334 339 0 347 20 50 30 12 13 21 35 32 23 20 38 60 56 91 137 142 157 151 173 169 173 171 168 175 174 173 172 171
207 215 215 220 214 217 228 254 282 296 308 322 353 6 352 20 49 29 8 21 32 21 26 20 4 50 97 89 106 118 129 151 153 145 164 168 168 174 171 170 173 181 195
201 204 213 216 211 211 215 248 276 281 270 304 23 5 339 27 45 24 9 16 10 16 17 35 28 71 109 95 97 116 116 119 143 142 162 164 157 176 168 164 164 173 147
194 202 208 207 208 205 217 253 277 272 258 280 51 357 339 33 54 28 17 13 19 12 22 46 40 60 148 156 144 122 119 121 122 131 151 160 155 144 159 163 170 153 156
189 199 198 200 200 212 224 256 271 243 249 254 145 6 23 24 82 26 15 24 13 4 26 61 53 85 136 161 173 159 169 148 125 108 123 151 150 141 129 144 160 169 153
193 194 192 196 201 214 230 254 259 228 216 209 218 145 167 147 86 20 7 31 6 18 50 76 99 103 126 163 154 141 149 136 132 124 113 120 134 124 127 135 141 139 153
195 195 194 197 209 221 235 253 252 233 212 202 187 184 170 180 125 355 9 14 2 13 40 110 127 144 108 156 188 181 180 173 134 148 125 121 119 122 125 131 124 155 152
Wind_Speed_850mb
19 17 30 29 22 19 16 13 11 12 14 15 18 19 20 20 21 21 19 19 15 11 12 15 15 16 17 16 17 24 23 21 18 17 18 14 15 14 20 23 12 11 8
6 15 27 28 22 18 16 14 13 14 16 18 19 20 21 21 22 22 21 23 22 19 15 10 16 19 22 20 21 23 26 25 24 22 23 21 22 18 30 20 16 11 9
13 15 24 26 21 17 14 12 12 15 15 15 15 14 14 14 14 16 17 19 24 28 28 23 14 13 17 22 22 25 26 28 25 24 23 21 23 25 33 25 15 12 12
13 12 21 25 20 16 13 12 13 13 11 9 9 10 10 11 12 14 15 17 19 22 27 33 32 21 16 17 23 26 30 30 28 27 25 22 26 31 35 22 22 14 13
14 14 23 25 20 13 12 14 13 10 8 8 8 7 7 8 9 11 13 15 16 19 22 27 34 36 34 27 22 26 31 32 31 30 29 25 26 35 41 29 26 15 16
13 16 22 21 16 13 13 12 10 9 7 7 7 8 9 11 12 14 16 17 19 21 23 24 28 34 40 40 35 27 30 33 35 34 33 29 29 35 40 37 28 19 20
15 18 19 19 13 11 11 9 8 7 7 8 8 11 13 15 16 18 19 20 21 23 25 28 30 32 35 40 45 41 32 32 33 37 37 33 31 36 43 40 31 22 25
12 14 17 16 12 10 8 8 8 8 8 8 11 13 16 19 20 21 20 20 21 22 24 26 30 34 35 36 40 43 45 37 36 39 39 35 30 35 44 43 28 27 32
13 13 16 16 12 9 8 8 8 9 8 10 12 15 17 20 22 24 26 29 30 31 29 30 30 32 34 36 37 40 41 44 40 40 42 39 35 33 38 27 31 30 37
17 17 16 14 11 8 7 7 8 8 9 10 12 15 18 22 27 28 29 31 32 32 32 33 33 34 34 35 35 37 39 45 44 43 44 42 41 39 38 42 41 29 38
25 20 18 15 11 9 7 6 6 8 10 13 14 18 23 28 31 33 35 36 34 31 28 28 28 28 29 34 34 32 40 48 47 45 44 47 45 40 39 47 42 37 41
29 23 19 16 10 10 8 5 6 9 12 16 21 24 29 31 33 34 32 33 33 31 25 19 21 24 24 24 28 32 36 43 51 49 44 47 47 44 41 43 49 45 48
24 25 19 17 13 12 9 7 8 11 15 20 26 29 30 33 32 30 28 26 23 22 20 18 16 18 22 23 22 26 32 38 49 49 44 40 44 44 40 43 54 52 49
32 26 22 17 16 14 11 11 12 14 17 22 28 32 35 32 29 27 25 23 19 19 21 21 18 18 20 19 21 25 27 27 37 47 44 40 45 44 41 40 58 54 46
29 25 20 19 20 17 14 15 13 15 19 23 27 32 30 28 27 24 22 20 19 21 20 17 14 15 19 16 19 25 24 20 17 41 42 38 43 45 39 43 53 50 49
24 23 19 19 20 19 17 16 14 16 19 24 28 26 24 23 23 20 19 19 19 21 19 22 20 15 10 14 12 18 24 22 22 26 40 36 33 38 37 62 31 49 53
22 22 22 21 21 22 19 15 13 15 20 25 26 20 20 21 19 17 19 20 22 25 23 21 16 14 5 11 6 21 22 27 28 25 24 34 37 33 46 41 53 60 50
26 28 27 25 23 24 20 13 12 17 20 23 18 17 17 18 13 18 19 23 27 31 16 11 16 10 5 9 4 10 16 19 31 28 25 35 38 37 44 49 49 50 39
28 31 32 28 24 22 17 12 14 16 18 14 13 14 14 11 14 16 22 27 25 20 24 21 19 10 5 8 4 4 5 14 24 27 29 36 41 39 48 50 42 41 42
29 30 28 27 23 21 16 13 13 16 14 10 12 11 11 8 13 17 22 22 20 19 21 20 16 18 12 10 9 10 9 15 20 24 30 39 44 52 48 43 39 35 46
31 31 27 25 22 20 15 11 12 13 8 6 7 10 8 7 11 13 18 18 16 18 18 17 9 15 14 16 14 18 17 17 25 36 33 48 57 48 50 44 38 31 38
30 29 26 24 22 18 13 10 13 11 5 6 4 5 8 8 8 12 15 17 19 19 17 14 11 6 13 13 22 26 17 36 32 41 44 46 47 56 52 41 31 23 40
30 28 24 24 21 16 11 10 11 9 4 1 3 3 4 6 6 11 13 16 18 21 16 12 10 9 7 11 19 10 13 10 46 48 50 52 39 38 34 33 37 24 55
28 26 25 23 19 15 10 9 8 7 5 2 1 1 1 2 3 8 11 14 18 17 13 13 10 6 12 17 6 15 8 46 31 27 48 46 42 33 41 43 39 31 60
29 28 25 23 19 14 11 10 9 9 5 2 1 3 3 2 3 6 11 11 14 14 10 10 9 11 12 8 11 25 37 52 39 56 51 67 62 62 56 46 45 56 53
30 28 25 21 17 15 11 10 8 9 6 4 4 4 5 4 1 5 10 9 14 13 7 9 11 12 11 7 9 26 39 41 49 66 72 72 72 59 53 49 44 52 71
Wind_Direction_850mb
190 183 194 197 195 197 202 211 228 242 252 259 263 263 264 262 261 261 258 251 253 243 265 257 251 251 248 236 225 223 231 232 227 230 237 233 244 252 193 177 184 168 138
223 198 198 198 197 200 207 222 242 257 266 268 266 263 262 263 265 265 258 251 246 244 239 265 268 257 248 243 230 225 230 233 236 231 235 235 233 228 190 179 180 175 147
234 213 200 199 199 205 216 245 268 279 276 270 267 269 270 270 268 269 265 259 251 243 249 242 250 268 253 244 239 230 223 228 234 233 235 236 220 199 190 181 181 181 153
223 216 201 197 201 213 238 267 288 287 279 275 281 280 282 282 279 274 272 269 263 256 247 245 249 251 252 255 244 237 228 221 225 229 234 228 214 202 195 196 179 171 158
210 201 190 197 205 226 267 288 290 286 289 290 287 290 290 288 291 291 286 282 276 267 258 250 249 245 245 245 245 240 235 228 226 227 228 227 219 208 202 198 187 173 159
204 189 191 198 211 239 270 283 288 288 287 288 297 300 303 308 309 305 304 297 289 284 275 265 255 249 246 245 243 241 237 230 229 224 225 226 221 213 202 190 181 166 164
200 191 195 203 222 261 280 283 277 280 292 299 305 317 322 322 323 319 315 311 302 292 284 278 270 261 254 249 243 243 241 233 226 223 223 226 225 214 198 187 178 172 165
216 201 202 211 233 257 265 272 286 300 297 310 321 327 331 330 325 320 315 304 295 288 282 275 270 266 260 253 249 241 238 234 228 223 222 223 221 209 202 196 171 172 164
225 223 215 220 237 244 255 273 286 287 302 320 327 333 327 320 316 311 309 309 305 297 287 277 266 259 257 253 247 244 236 227 225 222 223 218 217 214 212 196 177 174 166
232 231 226 227 233 241 256 272 279 300 312 320 324 322 322 327 324 320 315 309 304 300 296 288 281 272 259 252 244 237 231 223 223 222 220 218 217 221 214 203 182 173 171
230 235 234 228 230 234 239 266 304 308 307 313 330 331 334 330 329 326 321 322 322 317 310 298 287 277 265 256 250 238 228 221 221 221 218 217 218 224 215 207 186 180 174
235 233 235 234 234 241 249 282 310 302 313 328 334 337 335 332 327 324 326 324 321 318 316 309 292 278 263 257 252 239 228 223 217 217 220 215 219 222 219 208 205 181 174
249 244 242 239 233 238 259 282 301 308 325 334 332 331 329 328 332 331 326 323 322 318 314 309 297 277 268 253 246 236 228 222 216 212 215 217 215 217 217 206 185 172 167
238 241 244 243 244 248 263 272 295 316 326 329 327 325 331 337 336 335 334 330 325 325 321 311 294 271 262 259 255 232 213 219 214 206 207 211 211 212 213 201 170 166 167
231 233 234 233 234 236 247 266 292 314 320 321 321 329 334 340 342 336 338 344 345 338 329 335 321 299 261 259 256 216 210 199 215 211 207 206 206 211 209 200 175 178 168
224 227 229 229 232 235 244 267 296 310 315 316 323 333 339 345 331 338 350 359 353 350 347 339 331 318 289 259 228 211 209 201 212 211 212 205 207 209 203 187 164 168 168
226 220 226 230 232 236 246 269 297 306 314 320 329 339 349 335 342 360 5 8 359 353 334 334 332 319 325 313 245 222 213 206 211 209 208 197 205 199 182 181 166 166 172
223 214 214 225 233 239 249 274 292 301 316 324 334 340 352 335 360 15 24 4 357 349 360 13 349 340 311 319 244 227 218 204 209 217 204 188 188 184 183 170 171 170 173
225 214 213 219 224 235 248 263 281 302 316 329 333 346 347 348 24 35 17 4 358 17 36 18 3 22 352 341 207 158 200 189 183 198 191 178 178 183 173 173 170 175 170
218 218 219 213 219 226 238 255 285 304 319 334 339 0 347 20 50 30 12 13 21 35 32 23 20 38 60 56 91 137 142 157 151 173 169 173 171 168 175 174 173 172 171
207 215 215 220 214 217 228 254 282 296 308 322 353 6 352 20 49 29 8 21 32 21 26 20 4 50 97 89 106 118 129 151 153 145 164 168 168 174 171 170 173 181 195
201 204 213 216 211 211 215 248 276 281 270 304 23 5 339 27 45 24 9 16 10 16 17 35 28 71 109 95 97 116 116 119 143 142 162 164 157 176 168 164 164 173 147
194 202 208 207 208 205 217 253 277 272 258 280 51 357 339 33 54 28 17 13 19 12 22 46 40 60 148 156 144 122 119 121 122 131 151 160 155 144 159 163 170 153 156
189 199 198 200 200 212 224 256 271 243 249 254 145 6 23 24 82 26 15 24 13 4 26 61 53 85 136 161 173 159 169 148 125 108 123 151 150 141 129 144 160 169 153
193 194 192 196 201 214 230 254 259 228 216 209 218 145 167 147 86 20 7 31 6 18 50 76 99 103 126 163 154 141 149 136 132 124 113 120 134 124 127 135 141 139 153
195 195 194 197 209 221 235 253 252 233 212 202 187 184 170 180 125 355 9 14 2 13 40 110 127 144 108 156 188 181 180 173 134 148 125 121 119 122 125 131 124 155 152